Rio Vista Municipal (O88)
Rio Vista, CA
Field Elevation: 23
Lat: 38°11.60N  Long: 121°42.22W
CTAF/Unicom Freq: 122.7250
   
     For Weather-by-Phone, call (707) 374-5396
Weather Advisories
9/2/2014 21:11 Z
Altimeter 29.77" Hg
Wind 230° @ 12 KT
Gusts 17 KT
Visibility 10 SM
Ceiling CLR
Temperature 29° C (84° F)
Dewpoint 12° C (54° F)
Relative Humidity 36%
Density Altitude 1,800 feet
Condensation Altitude 8,400 feet
Heat Index 28° C (82° F)
  Wind and Runways
Indicated Runway = 25
History
 
 
More Info
All DigiWx sites map
NOAA Forecast
 
Airport IQ 5010
(DUC) Stack Farm
(CA37) Dominican
 
about DigiWx
 
FAA Disclaimer: The data displayed is for advisory purposes only and is not to be used for flight planning or operations. For official data, please call (707) 374-5396 to hear the current automated AWOS voice message.
  METAR O88 022111Z AUTO 23012G17KT 10SM CLR 29/12 A2977